Year,Month,Day,Hour,Minute,Value (Times are PST for temperature in C)
2011,02,23,00,00,-0.90
2011,02,23,00,01,-0.90
2011,02,23,00,02,-1.00
2011,02,23,00,03,-0.90
2011,02,23,00,04,-0.90
2011,02,23,00,05,-1.00
2011,02,23,00,06,-1.00
2011,02,23,00,07,-1.00
2011,02,23,00,08,-1.00
2011,02,23,00,09,-1.00
2011,02,23,00,10,-1.10
2011,02,23,00,11,-1.10
2011,02,23,00,12,-1.10
2011,02,23,00,13,-1.20
2011,02,23,00,14,-1.20
2011,02,23,00,15,-1.30
2011,02,23,00,16,-1.30
2011,02,23,00,17,-1.40
2011,02,23,00,18,-1.40
2011,02,23,00,19,-1.50
2011,02,23,00,20,-1.50
2011,02,23,00,21,-1.60
2011,02,23,00,22,-1.60
2011,02,23,00,23,-1.70
2011,02,23,00,24,-1.70
2011,02,23,00,25,-1.70
2011,02,23,00,26,-1.80
2011,02,23,00,27,-1.80
2011,02,23,00,28,-1.80
2011,02,23,00,29,-1.90
2011,02,23,00,30,-1.90
2011,02,23,00,31,-1.90
2011,02,23,00,32,-1.90
2011,02,23,00,33,-1.90
2011,02,23,00,34,-1.90
2011,02,23,00,35,-1.90
2011,02,23,00,36,-1.90
2011,02,23,00,37,-1.90
2011,02,23,00,38,-1.90
2011,02,23,00,39,-1.90
2011,02,23,00,40,-1.90
2011,02,23,00,41,-1.90
2011,02,23,00,42,-1.90
2011,02,23,00,43,-1.90
2011,02,23,00,44,-1.90
2011,02,23,00,45,-1.90
2011,02,23,00,46,-1.90
2011,02,23,00,47,-1.90
2011,02,23,00,48,-1.90
2011,02,23,00,49,-1.90
2011,02,23,00,50,-1.90
2011,02,23,00,51,-1.90
2011,02,23,00,52,-1.90
2011,02,23,00,53,-1.90
2011,02,23,00,54,-1.90
2011,02,23,00,55,-1.90
2011,02,23,00,56,-1.90
2011,02,23,00,57,-1.90
2011,02,23,00,58,-1.90
2011,02,23,00,59,-2.00
2011,02,23,01,00,-2.00
2011,02,23,01,01,-2.10
2011,02,23,01,02,-2.10
2011,02,23,01,03,-2.10
2011,02,23,01,04,-2.10
2011,02,23,01,05,-2.10
2011,02,23,01,06,-2.10
2011,02,23,01,07,-2.10
2011,02,23,01,08,-2.10
2011,02,23,01,09,-2.10
2011,02,23,01,10,-2.10
2011,02,23,01,11,-2.10
2011,02,23,01,12,-2.10
2011,02,23,01,13,-2.10
2011,02,23,01,14,-2.10
2011,02,23,01,15,-2.10
2011,02,23,01,16,-2.10
2011,02,23,01,17,-2.10
2011,02,23,01,18,-2.10
2011,02,23,01,19,-2.10
2011,02,23,01,20,-2.10
2011,02,23,01,21,-2.10
2011,02,23,01,22,-2.10
2011,02,23,01,23,-2.10
2011,02,23,01,24,-2.10
2011,02,23,01,25,-2.10
2011,02,23,01,26,-2.10
2011,02,23,01,27,-2.10
2011,02,23,01,28,-2.10
2011,02,23,01,29,-2.10
2011,02,23,01,30,-2.20
2011,02,23,01,31,-2.20
2011,02,23,01,32,-2.20
2011,02,23,01,33,-2.20
2011,02,23,01,34,-2.20
2011,02,23,01,35,-2.20
2011,02,23,01,36,-2.20
2011,02,23,01,37,-2.20
2011,02,23,01,38,-2.20
2011,02,23,01,39,-2.20
2011,02,23,01,40,-2.20
2011,02,23,01,41,-2.20
2011,02,23,01,42,-2.20
2011,02,23,01,43,-2.20
2011,02,23,01,44,-2.30
2011,02,23,01,45,-2.30
2011,02,23,01,46,-2.30
2011,02,23,01,47,-2.30
2011,02,23,01,48,-2.30
2011,02,23,01,49,-2.30
2011,02,23,01,50,-2.30
2011,02,23,01,51,-2.30
2011,02,23,01,52,-2.30
2011,02,23,01,53,-2.30
2011,02,23,01,54,-2.40
2011,02,23,01,55,-2.40
2011,02,23,01,56,-2.40
2011,02,23,01,57,-2.40
2011,02,23,01,58,-2.30
2011,02,23,01,59,-2.30
2011,02,23,02,00,-2.30
2011,02,23,02,01,-2.30
2011,02,23,02,02,-2.30
2011,02,23,02,03,-2.30
2011,02,23,02,04,-2.30
2011,02,23,02,05,-2.30
2011,02,23,02,06,-2.40
2011,02,23,02,07,-2.40
2011,02,23,02,08,-2.40
2011,02,23,02,09,-2.40
2011,02,23,02,10,-2.40
2011,02,23,02,11,-2.40
2011,02,23,02,12,-2.40
2011,02,23,02,13,-2.40
2011,02,23,02,14,-2.40
2011,02,23,02,15,-2.40
2011,02,23,02,16,-2.40
2011,02,23,02,17,-2.40
2011,02,23,02,18,-2.40
2011,02,23,02,19,-2.40
2011,02,23,02,20,-2.40
2011,02,23,02,21,-2.40
2011,02,23,02,22,-2.40
2011,02,23,02,23,-2.40
2011,02,23,02,24,-2.40
2011,02,23,02,25,-2.40
2011,02,23,02,26,-2.40
2011,02,23,02,27,-2.50
2011,02,23,02,28,-2.50
2011,02,23,02,29,-2.50
2011,02,23,02,30,-2.50
2011,02,23,02,31,-2.50
2011,02,23,02,32,-2.50
2011,02,23,02,33,-2.50
2011,02,23,02,34,-2.50
2011,02,23,02,35,-2.50
2011,02,23,02,36,-2.50
2011,02,23,02,37,-2.50
2011,02,23,02,38,-2.50
2011,02,23,02,39,-2.50
2011,02,23,02,40,-2.50
2011,02,23,02,41,-2.40
2011,02,23,02,42,-2.40
2011,02,23,02,43,-2.40
2011,02,23,02,44,-2.40
2011,02,23,02,45,-2.40
2011,02,23,02,46,-2.40
2011,02,23,02,47,-2.40
2011,02,23,02,48,-2.40
2011,02,23,02,49,-2.40
2011,02,23,02,50,-2.50
2011,02,23,02,51,-2.50
2011,02,23,02,52,-2.60
2011,02,23,02,53,-2.60
2011,02,23,02,54,-2.60
2011,02,23,02,55,-2.60
2011,02,23,02,56,-2.60
2011,02,23,02,57,-2.60
2011,02,23,02,58,-2.60
2011,02,23,02,59,-2.50
2011,02,23,03,00,-2.50
2011,02,23,03,01,-2.50
2011,02,23,03,02,-2.40
2011,02,23,03,03,-2.40
2011,02,23,03,04,-2.40
2011,02,23,03,05,-2.30
2011,02,23,03,06,-2.30
2011,02,23,03,07,-2.30
2011,02,23,03,08,-2.30
2011,02,23,03,09,-2.30
2011,02,23,03,10,-2.20
2011,02,23,03,11,-2.20
2011,02,23,03,12,-2.20
2011,02,23,03,13,-2.20
2011,02,23,03,14,-2.20
2011,02,23,03,15,-2.20
2011,02,23,03,16,-2.20
2011,02,23,03,17,-2.20
2011,02,23,03,18,-2.20
2011,02,23,03,19,-2.20
2011,02,23,03,20,-2.20
2011,02,23,03,21,-2.20
2011,02,23,03,22,-2.20
2011,02,23,03,23,-2.20
2011,02,23,03,24,-2.10
2011,02,23,03,25,-2.10
2011,02,23,03,26,-2.10
2011,02,23,03,27,-2.10
2011,02,23,03,28,-2.10
2011,02,23,03,29,-2.10
2011,02,23,03,30,-2.00
2011,02,23,03,31,-2.10
2011,02,23,03,32,-2.00
2011,02,23,03,33,-2.00
2011,02,23,03,34,-2.00
2011,02,23,03,35,-2.00
2011,02,23,03,36,-1.90
2011,02,23,03,37,-1.90
2011,02,23,03,38,-1.90
2011,02,23,03,39,-1.90
2011,02,23,03,40,-1.90
2011,02,23,03,41,-1.90
2011,02,23,03,42,-1.80
2011,02,23,03,43,-1.80
2011,02,23,03,44,-1.80
2011,02,23,03,45,-1.80
2011,02,23,03,46,-1.80
2011,02,23,03,47,-1.80
2011,02,23,03,48,-1.80
2011,02,23,03,49,-1.80
2011,02,23,03,50,-1.80
2011,02,23,03,51,-1.90
2011,02,23,03,52,-1.90
2011,02,23,03,53,-2.00
2011,02,23,03,54,-2.00
2011,02,23,03,55,-2.10
2011,02,23,03,56,-2.20
2011,02,23,03,57,-2.20
2011,02,23,03,58,-2.30
2011,02,23,03,59,-2.40
2011,02,23,04,00,-2.40
2011,02,23,04,01,-2.50
2011,02,23,04,02,-2.50
2011,02,23,04,03,-2.60
2011,02,23,04,04,-2.60
2011,02,23,04,05,-2.70
2011,02,23,04,06,-2.70
2011,02,23,04,07,-2.70
2011,02,23,04,08,-2.70
2011,02,23,04,09,-2.80
2011,02,23,04,10,-2.80
2011,02,23,04,11,-2.70
2011,02,23,04,12,-2.70
2011,02,23,04,13,-2.70
2011,02,23,04,14,-2.70
2011,02,23,04,15,-2.70
2011,02,23,04,16,-2.70
2011,02,23,04,17,-2.80
2011,02,23,04,18,-2.80
2011,02,23,04,19,-2.80
2011,02,23,04,20,-2.90
2011,02,23,04,21,-2.90
2011,02,23,04,22,-2.90
2011,02,23,04,23,-2.90
2011,02,23,04,24,-2.90
2011,02,23,04,25,-2.90
2011,02,23,04,26,-2.90
2011,02,23,04,27,-2.90
2011,02,23,04,28,-2.80
2011,02,23,04,29,-2.80
2011,02,23,04,30,-2.80
2011,02,23,04,31,-2.80
2011,02,23,04,32,-2.80
2011,02,23,04,33,-2.80
2011,02,23,04,34,-2.80
2011,02,23,04,35,-2.80
2011,02,23,04,36,-2.80
2011,02,23,04,37,-2.80
2011,02,23,04,38,-2.80
2011,02,23,04,39,-2.80
2011,02,23,04,40,-2.80
2011,02,23,04,41,-2.80
2011,02,23,04,42,-2.80
2011,02,23,04,43,-2.80
2011,02,23,04,44,-2.80
2011,02,23,04,45,-2.80
2011,02,23,04,46,-2.80
2011,02,23,04,47,-2.80
2011,02,23,04,48,-2.80
2011,02,23,04,49,-2.80
2011,02,23,04,50,-2.80
2011,02,23,04,51,-2.80
2011,02,23,04,52,-2.80
2011,02,23,04,53,-2.80
2011,02,23,04,54,-2.80
2011,02,23,04,55,-2.70
2011,02,23,04,56,-2.70
2011,02,23,04,57,-2.70
2011,02,23,04,58,-2.70
2011,02,23,04,59,-2.70
2011,02,23,05,00,-2.70
2011,02,23,05,01,-2.80
2011,02,23,05,02,-2.70
2011,02,23,05,03,-2.70
2011,02,23,05,04,-2.80
2011,02,23,05,05,-2.70
2011,02,23,05,06,-2.70
2011,02,23,05,07,-2.70
2011,02,23,05,08,-2.70
2011,02,23,05,09,-2.70
2011,02,23,05,10,-2.70
2011,02,23,05,11,-2.70
2011,02,23,05,12,-2.70
2011,02,23,05,13,-2.70
2011,02,23,05,14,-2.70
2011,02,23,05,15,-2.70
2011,02,23,05,16,-2.70
2011,02,23,05,17,-2.60
2011,02,23,05,18,-2.60
2011,02,23,05,19,-2.60
2011,02,23,05,20,-2.60
2011,02,23,05,21,-2.60
2011,02,23,05,22,-2.70
2011,02,23,05,23,-2.70
2011,02,23,05,24,-2.70
2011,02,23,05,25,-2.70
2011,02,23,05,26,-2.70
2011,02,23,05,27,-2.70
2011,02,23,05,28,-2.70
2011,02,23,05,29,-2.70
2011,02,23,05,30,-2.70
2011,02,23,05,31,-2.70
2011,02,23,05,32,-2.70
2011,02,23,05,33,-2.70
2011,02,23,05,34,-2.60
2011,02,23,05,35,-2.60
2011,02,23,05,36,-2.50
2011,02,23,05,37,-2.50
2011,02,23,05,38,-2.40
2011,02,23,05,39,-2.40
2011,02,23,05,40,-2.30
2011,02,23,05,41,-2.30
2011,02,23,05,42,-2.30
2011,02,23,05,43,-2.30
2011,02,23,05,44,-2.30
2011,02,23,05,45,-2.30
2011,02,23,05,46,-2.40
2011,02,23,05,47,-2.50
2011,02,23,05,48,-2.50
2011,02,23,05,49,-2.60
2011,02,23,05,50,-2.70
2011,02,23,05,51,-2.80
2011,02,23,05,52,-2.80
2011,02,23,05,53,-2.80
2011,02,23,05,54,-2.80
2011,02,23,05,55,-2.90
2011,02,23,05,56,-2.90
2011,02,23,05,57,-2.90
2011,02,23,05,58,-2.90
2011,02,23,05,59,-2.90
2011,02,23,06,00,-2.90
2011,02,23,06,01,-2.90
2011,02,23,06,02,-2.80
2011,02,23,06,03,-2.80
2011,02,23,06,04,-2.80
2011,02,23,06,05,-2.80
2011,02,23,06,06,-2.80
2011,02,23,06,07,-2.80
2011,02,23,06,08,-2.80
2011,02,23,06,09,-2.80
2011,02,23,06,10,-2.80
2011,02,23,06,11,-2.80
2011,02,23,06,12,-2.80
2011,02,23,06,13,-2.70
2011,02,23,06,14,-2.70
2011,02,23,06,15,-2.70
2011,02,23,06,16,-2.60
2011,02,23,06,17,-2.60
2011,02,23,06,18,-2.60
2011,02,23,06,19,-2.50
2011,02,23,06,20,-2.50
2011,02,23,06,21,-2.40
2011,02,23,06,22,-2.40
2011,02,23,06,23,-2.40
2011,02,23,06,24,-2.30
2011,02,23,06,25,-2.30
2011,02,23,06,26,-2.30
2011,02,23,06,27,-2.20
2011,02,23,06,28,-2.20
2011,02,23,06,29,-2.20
2011,02,23,06,30,-2.20
2011,02,23,06,31,-2.20
2011,02,23,06,32,-2.20
2011,02,23,06,33,-2.20
2011,02,23,06,34,-2.20
2011,02,23,06,35,-2.20
2011,02,23,06,36,-2.30
2011,02,23,06,37,-2.30
2011,02,23,06,38,-2.30
2011,02,23,06,39,-2.30
2011,02,23,06,40,-2.30
2011,02,23,06,41,-2.30
2011,02,23,06,42,-2.30
2011,02,23,06,43,-2.30
2011,02,23,06,44,-2.40
2011,02,23,06,45,-2.30
2011,02,23,06,46,-2.40
2011,02,23,06,47,-2.40
2011,02,23,06,48,-2.40
2011,02,23,06,49,-2.40
2011,02,23,06,50,-2.40
2011,02,23,06,51,-2.40
2011,02,23,06,52,-2.30
2011,02,23,06,53,-2.30
2011,02,23,06,54,-2.30
2011,02,23,06,55,-2.30
2011,02,23,06,56,-2.30
2011,02,23,06,57,-2.20
2011,02,23,06,58,-2.20
2011,02,23,06,59,-2.20
2011,02,23,07,00,-2.20
2011,02,23,07,01,-2.20
2011,02,23,07,02,-2.20
2011,02,23,07,03,-2.20
2011,02,23,07,04,-2.20
2011,02,23,07,05,-2.30
2011,02,23,07,06,-2.20
2011,02,23,07,07,-2.20
2011,02,23,07,08,-2.20
2011,02,23,07,09,-2.10
2011,02,23,07,10,-2.10
2011,02,23,07,11,-2.10
2011,02,23,07,12,-2.10
2011,02,23,07,13,-2.10
2011,02,23,07,14,-2.00
2011,02,23,07,15,-2.00
2011,02,23,07,16,-1.90
2011,02,23,07,17,-1.90
2011,02,23,07,18,-1.80
2011,02,23,07,19,-1.80
2011,02,23,07,20,-1.80
2011,02,23,07,21,-1.80
2011,02,23,07,22,-1.70
2011,02,23,07,23,-1.70
2011,02,23,07,24,-1.70
2011,02,23,07,25,-1.70
2011,02,23,07,26,-1.70
2011,02,23,07,27,-1.60
2011,02,23,07,28,-1.60
2011,02,23,07,29,-1.60
2011,02,23,07,30,-1.60
2011,02,23,07,31,-1.60
2011,02,23,07,32,-1.60
2011,02,23,07,33,-1.60
2011,02,23,07,34,-1.60
2011,02,23,07,35,-1.60
2011,02,23,07,36,-1.60
2011,02,23,07,37,-1.60
2011,02,23,07,38,-1.60
2011,02,23,07,39,-1.60
2011,02,23,07,40,-1.60
2011,02,23,07,41,-1.60
2011,02,23,07,42,-1.50
2011,02,23,07,43,-1.50
2011,02,23,07,44,-1.50
2011,02,23,07,45,-1.50
2011,02,23,07,46,-1.50
2011,02,23,07,47,-1.50
2011,02,23,07,48,-1.60
2011,02,23,07,49,-1.60
2011,02,23,07,50,-1.60
2011,02,23,07,51,-1.60
2011,02,23,07,52,-1.60
2011,02,23,07,53,-1.60
2011,02,23,07,54,-1.70
2011,02,23,07,55,-1.70
2011,02,23,07,56,-1.80
2011,02,23,07,57,-1.80
2011,02,23,07,58,-1.90
2011,02,23,07,59,-1.90
2011,02,23,08,00,-2.00
2011,02,23,08,01,-2.10
2011,02,23,08,02,-2.10
2011,02,23,08,03,-2.10
2011,02,23,08,04,-2.10
2011,02,23,08,05,-2.10
2011,02,23,08,06,-2.20
2011,02,23,08,07,-2.20
2011,02,23,08,08,-2.20
2011,02,23,08,09,-2.20
2011,02,23,08,10,-2.20
2011,02,23,08,11,-2.30
2011,02,23,08,12,-2.30
2011,02,23,08,13,-2.30
2011,02,23,08,14,-2.30
2011,02,23,08,15,-2.30
2011,02,23,08,16,-2.30
2011,02,23,08,17,-2.30
2011,02,23,08,18,-2.30
2011,02,23,08,19,-2.40
2011,02,23,08,20,-2.40
2011,02,23,08,21,-2.40
2011,02,23,08,22,-2.40
2011,02,23,08,23,-2.40
2011,02,23,08,24,-2.40
2011,02,23,08,25,-2.50
2011,02,23,08,26,-2.50
2011,02,23,08,27,-2.50
2011,02,23,08,28,-2.50
2011,02,23,08,29,-2.50
2011,02,23,08,30,-2.50
2011,02,23,08,31,-2.40
2011,02,23,08,32,-2.40
2011,02,23,08,33,-2.40
2011,02,23,08,34,-2.40
2011,02,23,08,35,-2.40
2011,02,23,08,36,-2.40
2011,02,23,08,37,-2.50
2011,02,23,08,38,-2.40
2011,02,23,08,39,-2.40
2011,02,23,08,40,-2.50
2011,02,23,08,41,-2.40
2011,02,23,08,42,-2.40
2011,02,23,08,43,-2.40
2011,02,23,08,44,-2.40
2011,02,23,08,45,-2.40
2011,02,23,08,46,-2.40
2011,02,23,08,47,-2.40
2011,02,23,08,48,-2.40
2011,02,23,08,49,-2.40
2011,02,23,08,50,-2.40
2011,02,23,08,51,-2.40
2011,02,23,08,52,-2.40
2011,02,23,08,53,-2.30
2011,02,23,08,54,-2.30
2011,02,23,08,55,-2.30
2011,02,23,08,56,-2.30
2011,02,23,08,57,-2.30
2011,02,23,08,58,-2.30
2011,02,23,08,59,-2.30
2011,02,23,09,00,-2.30
2011,02,23,09,01,-2.20
2011,02,23,09,02,-2.20
2011,02,23,09,03,-2.20
2011,02,23,09,04,-2.20
2011,02,23,09,05,-2.20
2011,02,23,09,06,-2.20
2011,02,23,09,07,-2.20
2011,02,23,09,08,-2.20
2011,02,23,09,09,-2.20
2011,02,23,09,10,-2.20
2011,02,23,09,11,-2.20
2011,02,23,09,12,-2.20
2011,02,23,09,13,-2.20
2011,02,23,09,14,-2.20
2011,02,23,09,15,-2.20
2011,02,23,09,16,-2.20
2011,02,23,09,17,-2.20
2011,02,23,09,18,-2.20
2011,02,23,09,19,-2.20
2011,02,23,09,20,-2.20
2011,02,23,09,21,-2.20
2011,02,23,09,22,-2.20
2011,02,23,09,23,-2.20
2011,02,23,09,24,-2.30
2011,02,23,09,25,-2.30
2011,02,23,09,26,-2.30
2011,02,23,09,27,-2.30
2011,02,23,09,28,-2.30
2011,02,23,09,29,-2.30
2011,02,23,09,30,-2.30
2011,02,23,09,31,-2.30
2011,02,23,09,32,-2.30
2011,02,23,09,33,-2.30
2011,02,23,09,34,-2.30
2011,02,23,09,35,-2.30
2011,02,23,09,36,-2.30
2011,02,23,09,37,-2.30
2011,02,23,09,38,-2.30
2011,02,23,09,39,-2.30
2011,02,23,09,40,-2.30
2011,02,23,09,41,-2.30
2011,02,23,09,42,-2.30
2011,02,23,09,43,-2.30
2011,02,23,09,44,-2.30
2011,02,23,09,45,-2.30
2011,02,23,09,46,-2.30
2011,02,23,09,47,-2.30
2011,02,23,09,48,-2.30
2011,02,23,09,49,-2.30
2011,02,23,09,50,-2.30
2011,02,23,09,51,-2.30
2011,02,23,09,52,-2.30
2011,02,23,09,53,-2.30
2011,02,23,09,54,-2.30
2011,02,23,09,55,-2.30
2011,02,23,09,56,-2.30
2011,02,23,09,57,-2.30
2011,02,23,09,58,-2.30
2011,02,23,09,59,-2.30
2011,02,23,10,00,-2.30
2011,02,23,10,01,-2.30
2011,02,23,10,02,-2.30
2011,02,23,10,03,-2.30
2011,02,23,10,04,-2.40
2011,02,23,10,05,-2.40
2011,02,23,10,06,-2.40
2011,02,23,10,07,-2.40
2011,02,23,10,08,-2.40
2011,02,23,10,09,-2.40
2011,02,23,10,10,-2.40
2011,02,23,10,11,-2.40
2011,02,23,10,12,-2.40
2011,02,23,10,13,-2.40
2011,02,23,10,14,-2.40
2011,02,23,10,15,-2.40
2011,02,23,10,16,-2.40
2011,02,23,10,17,-2.40
2011,02,23,10,18,-2.40
2011,02,23,10,19,-2.40
2011,02,23,10,20,-2.40
2011,02,23,10,21,-2.50
2011,02,23,10,22,-2.50
2011,02,23,10,23,-2.50
2011,02,23,10,24,-2.50
2011,02,23,10,25,-2.50
2011,02,23,10,26,-2.50
2011,02,23,10,27,-2.50
2011,02,23,10,28,-2.50
2011,02,23,10,29,-2.50
2011,02,23,10,30,-2.50
2011,02,23,10,31,-2.50
2011,02,23,10,32,-2.50
2011,02,23,10,33,-2.50
2011,02,23,10,34,-2.50
2011,02,23,10,35,-2.40
2011,02,23,10,36,-2.50
2011,02,23,10,37,-2.50
2011,02,23,10,38,-2.50
2011,02,23,10,39,-2.40
2011,02,23,10,40,-2.40
2011,02,23,10,41,-2.50
2011,02,23,10,42,-2.40
2011,02,23,10,43,-2.40
2011,02,23,10,44,-2.40
2011,02,23,10,45,-2.50
2011,02,23,10,46,-2.40
2011,02,23,10,47,-2.40
2011,02,23,10,48,-2.40
2011,02,23,10,49,-2.40
2011,02,23,10,50,-2.40
2011,02,23,10,51,-2.40
2011,02,23,10,52,-2.40
2011,02,23,10,53,-2.40
2011,02,23,10,54,-2.40
2011,02,23,10,55,-2.40
2011,02,23,10,56,-2.40
2011,02,23,10,57,-2.40
2011,02,23,10,58,-2.40
2011,02,23,10,59,-2.40
2011,02,23,11,00,-2.40
2011,02,23,11,01,-2.30
2011,02,23,11,02,-2.30
2011,02,23,11,03,-2.30
2011,02,23,11,04,-2.30
2011,02,23,11,05,-2.30
2011,02,23,11,06,-2.30
2011,02,23,11,07,-2.30
2011,02,23,11,08,-2.30
2011,02,23,11,09,-2.30
2011,02,23,11,10,-2.20
2011,02,23,11,11,-2.20
2011,02,23,11,12,-2.20
2011,02,23,11,13,-2.20
2011,02,23,11,14,-2.30
2011,02,23,11,15,-2.20
2011,02,23,11,16,-2.20
2011,02,23,11,17,-2.20
2011,02,23,11,18,-2.20
2011,02,23,11,19,-2.20
2011,02,23,11,20,-2.20
2011,02,23,11,21,-2.20
2011,02,23,11,22,-2.20
2011,02,23,11,23,-2.20
2011,02,23,11,24,-2.20
2011,02,23,11,25,-2.20
2011,02,23,11,26,-2.20
2011,02,23,11,27,-2.20
2011,02,23,11,28,-2.20
2011,02,23,11,29,-2.10
2011,02,23,11,30,-2.20
2011,02,23,11,31,-2.20
2011,02,23,11,32,-2.20
2011,02,23,11,33,-2.10
2011,02,23,11,34,-2.10
2011,02,23,11,35,-2.10
2011,02,23,11,36,-2.00
2011,02,23,11,37,-2.00
2011,02,23,11,38,-1.90
2011,02,23,11,39,-1.90
2011,02,23,11,40,-1.80
2011,02,23,11,41,-1.80
2011,02,23,11,42,-1.80
2011,02,23,11,43,-1.80
2011,02,23,11,44,-1.80
2011,02,23,11,45,-1.80
2011,02,23,11,46,-1.80
2011,02,23,11,47,-1.90
2011,02,23,11,48,-1.90
2011,02,23,11,49,-1.90
2011,02,23,11,50,-1.90
2011,02,23,11,51,-1.90
2011,02,23,11,52,-1.90
2011,02,23,11,53,-1.80
2011,02,23,11,54,-1.80
2011,02,23,11,55,-1.80
2011,02,23,11,56,-1.80
2011,02,23,11,57,-1.80
2011,02,23,11,58,-1.80
2011,02,23,11,59,-1.80
2011,02,23,12,00,-1.80
2011,02,23,12,01,-1.80
2011,02,23,12,02,-1.80
2011,02,23,12,03,-1.80
2011,02,23,12,04,-1.80
2011,02,23,12,05,-1.80
2011,02,23,12,06,-1.80
2011,02,23,12,07,-1.80
2011,02,23,12,08,-1.80
2011,02,23,12,09,-1.90
2011,02,23,12,10,-1.80
2011,02,23,12,11,-1.80
2011,02,23,12,12,-1.80
2011,02,23,12,13,-1.80
2011,02,23,12,14,-1.80
2011,02,23,12,15,-1.80
2011,02,23,12,16,-1.80
2011,02,23,12,17,-1.80
2011,02,23,12,18,-1.80
2011,02,23,12,19,-1.80
2011,02,23,12,20,-1.80
2011,02,23,12,21,-1.80
2011,02,23,12,22,-1.70
2011,02,23,12,23,-1.70
2011,02,23,12,24,-1.70
2011,02,23,12,25,-1.70
2011,02,23,12,26,-1.70
2011,02,23,12,27,-1.70
2011,02,23,12,28,-1.60
2011,02,23,12,29,-1.60
2011,02,23,12,30,-1.50
2011,02,23,12,31,-1.50
2011,02,23,12,32,-1.40
2011,02,23,12,33,-1.40
2011,02,23,12,34,-1.40
2011,02,23,12,35,-1.40
2011,02,23,12,36,-1.40
2011,02,23,12,37,-1.30
2011,02,23,12,38,-1.30
2011,02,23,12,39,-1.30
2011,02,23,12,40,-1.30
2011,02,23,12,41,-1.40
2011,02,23,12,42,-1.40
2011,02,23,12,43,-1.40
2011,02,23,12,44,-1.40
2011,02,23,12,45,-1.30
2011,02,23,12,46,-1.30
2011,02,23,12,47,-1.30
2011,02,23,12,48,-1.20
2011,02,23,12,49,-1.20
2011,02,23,12,50,-1.20
2011,02,23,12,51,-1.20
2011,02,23,12,52,-1.10
2011,02,23,12,53,-1.10
2011,02,23,12,54,-1.00
2011,02,23,12,55,-1.00
2011,02,23,12,56,-0.90
2011,02,23,12,57,-0.90
2011,02,23,12,58,-0.90
2011,02,23,12,59,-0.90
2011,02,23,13,00,-0.90
2011,02,23,13,01,-0.90
2011,02,23,13,02,-0.90
2011,02,23,13,03,-0.90
2011,02,23,13,04,-0.90
2011,02,23,13,05,-0.90
2011,02,23,13,06,-0.90
2011,02,23,13,07,-0.90
2011,02,23,13,08,-0.90
2011,02,23,13,09,-0.90
2011,02,23,13,10,-0.90
2011,02,23,13,11,-0.90
2011,02,23,13,12,-1.00
2011,02,23,13,13,-1.00
2011,02,23,13,14,-1.10
2011,02,23,13,15,-1.20
2011,02,23,13,16,-1.20
2011,02,23,13,17,-1.20
2011,02,23,13,18,-1.10
2011,02,23,13,19,-1.10
2011,02,23,13,20,-1.10
2011,02,23,13,21,-1.00
2011,02,23,13,22,-1.00
2011,02,23,13,23,-1.00
2011,02,23,13,24,-0.90
2011,02,23,13,25,-0.90
2011,02,23,13,26,-0.90
2011,02,23,13,27,-0.80
2011,02,23,13,28,-0.70
2011,02,23,13,29,-0.70
2011,02,23,13,30,-0.60
2011,02,23,13,31,-0.60
2011,02,23,13,32,-0.60
2011,02,23,13,33,-0.60
2011,02,23,13,34,-0.60
2011,02,23,13,35,-0.60
2011,02,23,13,36,-0.60
2011,02,23,13,37,-0.60
2011,02,23,13,38,-0.60
2011,02,23,13,39,-0.60
2011,02,23,13,40,-0.60
2011,02,23,13,41,-0.60
2011,02,23,13,42,-0.60
2011,02,23,13,43,-0.60
2011,02,23,13,44,-0.60
2011,02,23,13,45,-0.60
2011,02,23,13,46,-0.60
2011,02,23,13,47,-0.60
2011,02,23,13,48,-0.60
2011,02,23,13,49,-0.60
2011,02,23,13,50,-0.60
2011,02,23,13,51,-0.60
2011,02,23,13,52,-0.60
2011,02,23,13,53,-0.60
2011,02,23,13,54,-0.60
2011,02,23,13,55,-0.60
2011,02,23,13,56,-0.70
2011,02,23,13,57,-0.70
2011,02,23,13,58,-0.70
2011,02,23,13,59,-0.80
2011,02,23,14,00,-0.80
2011,02,23,14,01,-0.80
2011,02,23,14,02,-0.90
2011,02,23,14,03,-0.90
2011,02,23,14,04,-0.90
2011,02,23,14,05,-0.90
2011,02,23,14,06,-0.90
2011,02,23,14,07,-0.90
2011,02,23,14,08,-0.90
2011,02,23,14,09,-0.90
2011,02,23,14,10,-0.90
2011,02,23,14,11,-1.00
2011,02,23,14,12,-1.00
2011,02,23,14,13,-1.10
2011,02,23,14,14,-1.10
2011,02,23,14,15,-1.10
2011,02,23,14,16,-1.00
2011,02,23,14,17,-1.00
2011,02,23,14,18,-0.90
2011,02,23,14,19,-0.90
2011,02,23,14,20,-0.80
2011,02,23,14,21,-0.80
2011,02,23,14,22,-0.70
2011,02,23,14,23,-0.70
2011,02,23,14,24,-0.70
2011,02,23,14,25,-0.60
2011,02,23,14,26,-0.60
2011,02,23,14,27,-0.50
2011,02,23,14,28,-0.50
2011,02,23,14,29,-0.40
2011,02,23,14,30,-0.30
2011,02,23,14,31,-0.30
2011,02,23,14,32,-0.20
2011,02,23,14,33,-0.30
2011,02,23,14,34,-0.20
2011,02,23,14,35,-0.20
2011,02,23,14,36,-0.20
2011,02,23,14,37,-0.30
2011,02,23,14,38,-0.40
2011,02,23,14,39,-0.50
2011,02,23,14,40,-0.60
2011,02,23,14,41,-0.60
2011,02,23,14,42,-0.60
2011,02,23,14,43,-0.70
2011,02,23,14,44,-0.80
2011,02,23,14,45,-0.80
2011,02,23,14,46,-0.80
2011,02,23,14,47,-0.80
2011,02,23,14,48,-0.80
2011,02,23,14,49,-0.80
2011,02,23,14,50,-0.80
2011,02,23,14,51,-0.80
2011,02,23,14,52,-0.80
2011,02,23,14,53,-0.80
2011,02,23,14,54,-0.80
2011,02,23,14,55,-0.80
2011,02,23,14,56,-0.70
2011,02,23,14,57,-0.70
2011,02,23,14,58,-0.70
2011,02,23,14,59,-0.70
2011,02,23,15,00,-0.70
2011,02,23,15,01,-0.80
2011,02,23,15,02,-0.80
2011,02,23,15,03,-0.80
2011,02,23,15,04,-0.90
2011,02,23,15,05,-0.90
2011,02,23,15,06,-0.90
2011,02,23,15,07,-0.90
2011,02,23,15,08,-0.90
2011,02,23,15,09,-0.90
2011,02,23,15,10,-0.90
2011,02,23,15,11,-0.90
2011,02,23,15,12,-0.90
2011,02,23,15,13,-0.90
2011,02,23,15,14,-0.90
2011,02,23,15,15,-1.00
2011,02,23,15,16,-1.00
2011,02,23,15,17,-1.10
2011,02,23,15,18,-1.10
2011,02,23,15,19,-1.10
2011,02,23,15,20,-1.20
2011,02,23,15,21,-1.20
2011,02,23,15,22,-1.20
2011,02,23,15,23,-1.30
2011,02,23,15,24,-1.30
2011,02,23,15,25,-1.40
2011,02,23,15,26,-1.40
2011,02,23,15,27,-1.50
2011,02,23,15,28,-1.50
2011,02,23,15,29,-1.60
2011,02,23,15,30,-1.60
2011,02,23,15,31,-1.70
2011,02,23,15,32,-1.70
2011,02,23,15,33,-1.70
2011,02,23,15,34,-1.80
2011,02,23,15,35,-1.80
2011,02,23,15,36,-1.80
2011,02,23,15,37,-1.80
2011,02,23,15,38,-1.90
2011,02,23,15,39,-1.90
2011,02,23,15,40,-1.90
2011,02,23,15,41,-2.00
2011,02,23,15,42,-2.10
2011,02,23,15,43,-2.10
2011,02,23,15,44,-2.10
2011,02,23,15,45,-2.20
2011,02,23,15,46,-2.20
2011,02,23,15,47,-2.20
2011,02,23,15,48,-2.20
2011,02,23,15,49,-2.30
2011,02,23,15,50,-2.30
2011,02,23,15,51,-2.30
2011,02,23,15,52,-2.40
2011,02,23,15,53,-2.40
2011,02,23,15,54,-2.50
2011,02,23,15,55,-2.50
2011,02,23,15,56,-2.50
2011,02,23,15,57,-2.60
2011,02,23,15,58,-2.60
2011,02,23,15,59,-2.60
2011,02,23,16,00,-2.70
2011,02,23,16,01,-2.70
2011,02,23,16,02,-2.70
2011,02,23,16,03,-2.70
2011,02,23,16,04,-2.70
2011,02,23,16,05,-2.70
2011,02,23,16,06,-2.70
2011,02,23,16,07,-2.80
2011,02,23,16,08,-2.80
2011,02,23,16,09,-2.80
2011,02,23,16,10,-2.80
2011,02,23,16,11,-2.80
2011,02,23,16,12,-2.80
2011,02,23,16,13,-2.80
2011,02,23,16,14,-2.90
2011,02,23,16,15,-2.90
2011,02,23,16,16,-2.90
2011,02,23,16,17,-2.90
2011,02,23,16,18,-2.90
2011,02,23,16,19,-2.90
2011,02,23,16,20,-2.90
2011,02,23,16,21,-2.90
2011,02,23,16,22,-2.90
2011,02,23,16,23,-2.90
2011,02,23,16,24,-2.90
2011,02,23,16,25,-2.90
2011,02,23,16,26,-2.90
2011,02,23,16,27,-2.90
2011,02,23,16,28,-2.90
2011,02,23,16,29,-2.90
2011,02,23,16,30,-3.00
2011,02,23,16,31,-3.00
2011,02,23,16,32,-3.00
2011,02,23,16,33,-3.00
2011,02,23,16,34,-3.00
2011,02,23,16,35,-3.00
2011,02,23,16,36,-3.00
2011,02,23,16,37,-3.00
2011,02,23,16,38,-3.00
2011,02,23,16,39,-3.00
2011,02,23,16,40,-2.90
2011,02,23,16,41,-2.90
2011,02,23,16,42,-2.90
2011,02,23,16,43,-2.90
2011,02,23,16,44,-2.90
2011,02,23,16,45,-2.90
2011,02,23,16,46,-2.90
2011,02,23,16,47,-2.90
2011,02,23,16,48,-2.90
2011,02,23,16,49,-2.90
2011,02,23,16,50,-2.90
2011,02,23,16,51,-2.90
2011,02,23,16,52,-2.90
2011,02,23,16,53,-2.90
2011,02,23,16,54,-2.90
2011,02,23,16,55,-2.90
2011,02,23,16,56,-2.90
2011,02,23,16,57,-2.90
2011,02,23,16,58,-2.90
2011,02,23,16,59,-2.80
2011,02,23,17,00,-2.80
2011,02,23,17,01,-2.80
2011,02,23,17,02,-2.80
2011,02,23,17,03,-2.90
2011,02,23,17,04,-2.90
2011,02,23,17,05,-2.90
2011,02,23,17,06,-2.90
2011,02,23,17,07,-3.00
2011,02,23,17,08,-3.00
2011,02,23,17,09,-3.10
2011,02,23,17,10,-3.10
2011,02,23,17,11,-3.20
2011,02,23,17,12,-3.20
2011,02,23,17,13,-3.20
2011,02,23,17,14,-3.30
2011,02,23,17,15,-3.30
2011,02,23,17,16,-3.30
2011,02,23,17,17,-3.30
2011,02,23,17,18,-3.40
2011,02,23,17,19,-3.40